CW3728 Weather Reports


time (UTC)temp
F
wind
direction
speed
knots
gust
knots
rain 1hr
in
rain 24hr
in
rain mn
in
humidity
%
barometer
mb
20260507030038 64 1 0.0 0.0 0.00 0.00 0.00 81 1009.0
20260507025524 64 8 0.0 0.0 0.00 0.00 0.00 81 1009.0
20260507025102 64 8 0.0 0.0 0.00 0.00 0.00 81 1009.0
20260507024545 64 336 0.0 0.0 0.00 0.00 0.00 81 1009.2
20260507024028 64 336 0.0 0.0 0.00 0.00 0.00 80 1009.2
20260507023530 64 333 0.0 0.0 0.00 0.00 0.00 81 1009.2
20260507023053 64 25 0.0 0.0 0.00 0.00 0.00 81 1008.5
20260507022533 64 360 0.0 0.0 0.00 0.00 0.00 80 1008.5
20260507022036 64 32 0.0 0.0 0.00 0.00 0.00 80 1008.5
20260507021537 64 32 0.0 0.0 0.00 0.00 0.00 80 1008.4
20260507021038 64 34 0.0 0.0 0.00 0.00 0.00 80 1008.4
20260507020531 64 11 0.0 0.0 0.00 0.00 0.00 80 1008.4
20260507020022 64 11 0.0 0.0 0.00 0.00 0.00 80 1008.4
20260507015530 64 11 0.0 0.0 0.00 0.00 0.00 80 1008.4
20260507015036 64 13 0.0 0.0 0.00 0.00 0.00 80 1008.4
20260507014541 64 21 0.0 0.0 0.00 0.00 0.00 80 1008.3
20260507014105 65 37 0.0 0.0 0.00 0.00 0.00 80 1008.3
20260507013606 65 36 0.0 0.0 0.00 0.00 0.00 80 1008.3
20260507013108 65 34 0.0 0.0 0.00 0.00 0.00 79 1007.9
20260507012529 65 28 0.0 0.0 0.00 0.00 0.00 79 1007.9
20260507012052 65 54 0.0 0.0 0.00 0.00 0.00 79 1007.9
20260507011535 65 19 0.0 0.0 0.00 0.00 0.00 79 1007.5
20260507011050 65 351 0.0 0.0 0.00 0.00 0.00 79 1007.5
20260507010608 65 15 0.0 0.0 0.00 0.00 0.00 79 1007.5
20260507010030 65 34 0.0 0.0 0.00 0.00 0.00 78 1007.8
20260507005532 65 300 0.0 0.0 0.00 0.00 0.00 78 1007.8
20260507005034 65 338 0.0 0.0 0.00 0.00 0.00 78 1007.8
20260507004537 66 7 0.0 0.0 0.00 0.00 0.00 78 1007.4
20260507004038 66 39 0.0 0.0 0.00 0.00 0.00 77 1007.4
20260507003539 66 26 0.0 0.0 0.00 0.00 0.00 77 1007.4
20260507003042 66 360 0.0 0.0 0.00 0.00 0.00 76 1007.2
20260507002535 67 318 0.0 0.0 0.00 0.00 0.00 76 1007.3
20260507002042 67 49 0.0 0.0 0.00 0.00 0.00 76 1007.3
20260507001528 67 355 0.0 0.0 0.00 0.00 0.00 76 1007.2
20260507001045 67 34 0.0 0.0 0.00 0.00 0.00 75 1007.2
20260507000538 67 30 0.0 0.0 0.00 0.00 0.00 75 1007.2
20260507000029 67 6 0.0 0.0 0.00 0.00 0.00 75 1006.8
20260506235538 68 1 0.0 0.0 0.00 0.00 0.00 75 1006.8
20260506235044 68 1 0.0 0.0 0.00 0.00 0.00 75 1006.8
20260506234549 68 302 0.0 0.0 0.00 0.00 0.00 73 1006.7
20260506234030 69 8 0.0 0.0 0.00 0.00 0.00 73 1006.8
20260506233542 69 6 0.0 0.0 0.00 0.00 0.00 72 1006.8
20260506233046 70 21 0.0 0.0 0.00 0.00 0.00 72 1006.6
20260506232536 70 352 0.0 0.0 0.00 0.00 0.00 71 1006.6
20260506232039 71 26 0.0 0.0 0.00 0.00 0.00 71 1006.6
20260506231545 71 360 0.0 0.0 0.00 0.00 0.00 71 1006.3
20260506231038 72 360 0.0 0.0 0.00 0.00 0.00 68 1006.3
20260506230532 73 327 0.0 0.0 0.00 0.00 0.00 67 1006.3
20260506230035 74 360 0.0 0.0 0.00 0.00 0.00 68 1006.2
20260506225536 75 321 0.0 0.0 0.00 0.00 0.00 66 1006.3
20260506225059 75 103 0.0 0.0 0.00 0.00 0.00 68 1006.3
20260506224541 75 240 0.0 0.0 0.00 0.00 0.00 66 1006.0
20260506224107 75 44 0.0 0.0 0.00 0.00 0.00 66 1006.0
20260506223527 77 61 0.0 0.0 0.00 0.00 0.00 65 1006.0
20260506223030 76 30 0.0 0.0 0.00 0.00 0.00 68 1005.8
20260506222535 76 86 0.0 0.0 0.00 0.00 0.00 67 1005.8
20260506222038 77 40 0.0 0.0 0.00 0.00 0.00 63 1005.8
20260506221550 77 78 0.0 0.0 0.00 0.00 0.00 65 1005.7
20260506221043 77 293 0.0 0.0 0.00 0.00 0.00 66 1005.7
20260506220539 77 26 0.0 0.0 0.00 0.00 0.00 66 1005.7
20260506220042 77 17 0.0 0.0 0.00 0.00 0.00 66 1005.8
20260506215527 77 360 0.0 0.0 0.00 0.00 0.00 69 1005.8
20260506215030 77 44 0.0 0.0 0.00 0.00 0.00 67 1005.8
20260506214551 77 293 0.0 0.0 0.00 0.00 0.00 68 1005.5
20260506214033 77 21 0.0 0.0 0.00 0.00 0.00 68 1005.5
20260506213535 77 301 0.0 0.0 0.00 0.00 0.00 67 1005.5
20260506213038 78 307 0.0 0.0 0.00 0.00 0.00 67 1005.3
20260506212601 79 332 0.0 0.0 0.00 0.00 0.00 67 1005.3
20260506212025 79 330 0.0 0.0 0.00 0.00 0.00 66 1005.3
20260506211529 79 25 0.0 0.0 0.00 0.00 0.00 68 1005.2
20260506211056 79 5 0.0 0.0 0.00 0.00 0.00 66 1005.2
20260506210606 80 293 0.0 0.0 0.00 0.00 0.00 66 1005.2
20260506210039 81 257 0.0 0.0 0.00 0.00 0.00 67 1005.4
20260506205526 80 46 0.0 0.0 0.00 0.00 0.00 70 1005.4
20260506205032 79 27 0.0 0.0 0.00 0.00 0.00 71 1005.3
20260506204527 78 17 0.0 0.0 0.00 0.00 0.00 72 1005.4
20260506204030 77 34 0.0 0.0 0.00 0.00 0.00 72 1005.4
20260506203540 77 32 0.0 0.0 0.00 0.00 0.00 74 1005.4
20260506203032 77 75 0.0 0.0 0.00 0.00 0.00 73 1005.4
20260506202534 78 11 0.0 0.0 0.00 0.00 0.00 71 1005.4
20260506202036 79 25 0.0 0.0 0.00 0.00 0.00 72 1005.4
20260506201547 80 20 0.0 0.0 0.00 0.00 0.00 69 1005.1
20260506201039 82 20 0.0 0.0 0.00 0.00 0.00 73 1005.2
20260506200529 83 37 0.0 0.0 0.00 0.00 0.00 72 1005.2
20260506200052 83 30 0.0 0.0 0.00 0.00 0.00 71 1005.0
20260506195539 84 36 0.0 0.0 0.00 0.00 0.00 71 1005.1
20260506195042 84 38 0.0 0.0 0.00 0.00 0.00 69 1005.1
20260506194527 84 33 0.0 0.0 0.00 0.00 0.00 70 1005.1
20260506194031 84 38 0.0 0.0 0.00 0.00 0.00 72 1005.1
20260506193545 83 108 0.0 0.0 0.00 0.00 0.00 70 1005.0
20260506193025 84 53 0.0 0.0 0.00 0.00 0.00 70 1005.2
20260506192533 84 79 0.0 0.0 0.00 0.00 0.00 69 1005.2
20260506192036 85 66 0.0 0.0 0.00 0.00 0.00 70 1005.2
20260506191530 85 66 0.0 0.0 0.00 0.00 0.00 69 1005.4
20260506191044 85 69 0.0 0.0 0.00 0.00 0.00 69 1005.4
20260506190526 86 360 0.0 0.0 0.00 0.00 0.00 71 1005.4
20260506190032 85 360 0.0 0.0 0.00 0.00 0.00 75 1005.5
20260506185538 84 360 0.0 0.0 0.00 0.00 0.00 75 1005.5
20260506185033 83 97 0.0 0.0 0.00 0.00 0.00 74 1005.4
20260506184539 83 93 0.0 0.0 0.00 0.00 0.00 74 1005.6
20260506184042 83 92 0.0 0.0 0.00 0.00 0.00 73 1005.6
20260506183605 83 91 0.0 0.0 0.00 0.00 0.00 71 1005.6
20260506183027 83 41 0.0 0.0 0.00 0.00 0.00 74 1005.6
20260506182532 84 360 0.0 0.0 0.00 0.00 0.00 72 1005.7
20260506182038 83 26 0.0 0.0 0.00 0.00 0.00 73 1005.6
20260506181543 83 360 0.0 0.0 0.00 0.00 0.00 75 1005.7
20260506181050 83 25 0.0 0.0 0.00 0.00 0.00 77 1005.7
20260506180542 82 25 0.0 0.0 0.00 0.00 0.00 76 1005.7
20260506180044 81 360 0.0 0.0 0.00 0.00 0.00 74 1005.7
20260506175548 81 16 0.0 0.0 0.00 0.00 0.00 75 1005.7
20260506175037 80 25 0.0 0.0 0.00 0.00 0.00 79 1005.7
20260506174542 79 360 0.0 0.0 0.00 0.00 0.00 79 1005.8
20260506174028 78 14 0.0 0.0 0.00 0.00 0.00 78 1005.8
20260506173551 78 13 0.0 0.0 0.00 0.00 0.00 78 1005.8
20260506173035 77 12 0.0 0.0 0.00 0.00 0.00 78 1006.1
20260506172529 77 18 0.0 0.0 0.00 0.00 0.00 80 1006.1
20260506172032 76 28 0.0 0.0 0.00 0.00 0.00 81 1006.1
20260506171533 76 16 0.0 0.0 0.00 0.00 0.00 79 1006.2
20260506171046 76 29 0.0 0.0 0.00 0.00 0.00 79 1006.2
20260506170538 76 31 0.0 0.0 0.00 0.00 0.00 78 1006.2
20260506170041 78 360 0.0 0.0 0.00 0.00 0.00 75 1006.1
20260506165542 80 63 0.0 0.0 0.00 0.00 0.00 82 1006.1
20260506165044 80 63 0.0 0.0 0.00 0.00 0.00 80 1006.1
20260506164538 79 63 0.0 0.0 0.00 0.00 0.00 80 1006.1
20260506164041 79 63 0.0 0.0 0.00 0.00 0.00 79 1006.1
20260506163532 79 360 0.0 0.0 0.00 0.00 0.00 81 1006.1
20260506163039 79 46 0.0 0.0 0.00 0.00 0.00 81 1006.2
20260506162544 79 44 0.0 0.0 0.00 0.00 0.00 83 1006.2
20260506162046 79 18 0.0 0.0 0.00 0.00 0.00 82 1006.2
20260506161528 79 34 0.0 0.0 0.00 0.00 0.00 83 1006.3
20260506161036 78 35 0.0 0.0 0.00 0.00 0.00 86 1006.3
20260506160529 78 44 0.0 0.0 0.00 0.00 0.00 85 1006.3
20260506160030 78 360 0.0 0.0 0.00 0.00 0.00 86 1006.1
20260506155533 78 28 0.0 0.0 0.00 0.00 0.00 86 1006.1
20260506155036 77 26 0.0 0.0 0.00 0.00 0.00 86 1006.1
20260506154527 77 146 0.0 0.0 0.00 0.00 0.00 87 1005.8
20260506154032 77 146 0.0 0.0 0.00 0.00 0.00 88 1005.8
20260506153536 77 146 0.0 0.0 0.00 0.00 0.00 87 1005.8
20260506153036 77 146 0.0 0.0 0.00 0.00 0.00 87 1005.2
20260506152538 77 146 0.0 0.0 0.00 0.00 0.00 87 1005.2
20260506152101 77 146 0.0 0.0 0.00 0.00 0.00 87 1005.2
20260506151540 77 146 0.0 0.0 0.00 0.00 0.00 88 1005.1
20260506151055 76 146 0.0 0.0 0.00 0.00 0.00 88 1005.1
20260506150535 76 146 0.0 0.0 0.00 0.00 0.00 88 1005.1
20260506150039 76 146 0.0 0.0 0.00 0.00 0.00 88 1005.1
20260506145601 76 146 0.0 0.0 0.00 0.00 0.00 88 1005.1
20260506145051 76 146 0.0 0.0 0.00 0.00 0.00 88 1005.1
20260506144531 76 146 0.0 0.0 0.00 0.00 0.00 88 1005.1
20260506144027 76 146 0.0 0.0 0.00 0.00 0.00 88 1005.1
20260506143531 76 146 0.0 0.0 0.00 0.00 0.00 88 1005.1
20260506143034 76 146 0.0 0.0 0.00 0.00 0.00 88 1005.1
20260506142538 76 146 0.0 0.0 0.00 0.00 0.00 88 1005.1
20260506142041 76 146 0.0 0.0 0.00 0.00 0.00 87 1005.1
20260506141528 76 147 0.0 0.0 0.00 0.00 0.00 87 1004.6
20260506141044 76 147 0.0 0.0 0.00 0.00 0.00 88 1004.6
20260506140555 76 147 0.0 0.0 0.00 0.00 0.00 87 1004.6
20260506140040 76 360 0.0 0.0 0.00 0.00 0.00 88 1004.1
20260506135604 76 150 0.0 0.0 0.00 0.00 0.00 88 1004.1
20260506135027 76 150 0.0 0.0 0.00 0.00 0.00 88 1004.1
20260506134530 76 150 0.0 0.0 0.00 0.00 0.00 89 1003.9
20260506134036 76 150 0.0 0.0 0.00 0.00 0.00 88 1003.9
20260506133542 76 150 0.0 0.0 0.00 0.00 0.00 88 1003.9
20260506133044 76 150 0.0 0.0 0.00 0.00 0.00 88 1003.8
20260506132536 76 150 0.0 0.0 0.00 0.00 0.00 89 1003.8
20260506132039 75 150 0.0 0.0 0.00 0.00 0.00 89 1003.8
20260506131603 75 150 0.0 0.0 0.00 0.00 0.00 89 1003.6
20260506131056 75 145 0.0 0.0 0.00 0.00 0.00 89 1003.6
20260506130529 75 155 0.0 0.0 0.00 0.00 0.00 89 1003.6
20260506130021 75 155 0.0 0.0 0.00 0.00 0.00 90 1003.6
20260506125529 75 155 0.0 0.0 0.00 0.00 0.00 90 1003.6
20260506125035 75 155 0.0 0.0 0.00 0.00 0.00 90 1003.6
20260506124537 75 155 0.0 0.0 0.00 0.00 0.00 90 1003.6
20260506124040 75 155 0.0 0.0 0.00 0.00 0.00 90 1003.6
20260506123547 75 155 0.0 0.0 0.00 0.00 0.00 90 1003.6
20260506123046 75 155 0.0 0.0 0.00 0.00 0.00 90 1003.5
20260506122548 75 155 0.0 0.0 0.00 0.00 0.00 90 1003.5
20260506122030 75 155 0.0 0.0 0.00 0.00 0.00 90 1003.5
20260506121532 75 155 0.0 0.0 0.00 0.00 0.00 90 1003.6
20260506121046 75 155 0.0 0.0 0.00 0.00 0.00 90 1003.6
20260506120550 75 155 0.0 0.0 0.00 0.00 0.00 90 1003.6
20260506120032 75 155 0.0 0.0 0.00 0.00 0.00 90 1003.4
20260506115526 75 155 0.0 0.0 0.00 0.00 0.00 90 1003.4
20260506115029 75 155 0.0 0.0 0.00 0.00 0.00 90 1003.4
20260506114533 75 155 0.0 0.0 0.00 0.00 0.00 90 1003.4
20260506114029 75 155 0.0 0.0 0.00 0.00 0.00 90 1003.4
20260506113551 75 155 0.0 0.0 0.00 0.00 0.00 90 1003.4
20260506113033 75 155 0.0 0.0 0.00 0.00 0.00 90 1003.2
20260506112555 75 155 0.0 0.0 0.00 0.00 0.00 89 1003.2
20260506112057 75 155 0.0 0.0 0.00 0.00 0.00 89 1003.2
20260506111541 75 155 0.0 0.0 0.00 0.00 0.00 89 1003.4
20260506111055 75 155 0.0 0.0 0.00 0.00 0.00 89 1003.4
20260506110605 75 155 0.0 0.0 0.00 0.00 0.00 89 1003.4
20260506110046 75 155 0.0 0.0 0.00 0.00 0.00 89 1003.1
20260506105529 75 155 0.0 0.0 0.00 0.00 0.00 89 1003.1
20260506105035 75 155 0.0 0.0 0.00 0.00 0.00 89 1003.1
20260506104536 75 155 0.0 0.0 0.00 0.00 0.00 88 1003.1
20260506104100 75 155 0.0 0.0 0.00 0.00 0.00 88 1003.1
20260506103529 75 156 0.0 0.0 0.00 0.00 0.00 88 1003.1
20260506103039 75 155 0.0 0.0 0.00 0.00 0.00 88 1003.1
20260506102541 75 155 0.0 0.0 0.00 0.00 0.00 88 1003.1
20260506102104 75 155 0.0 0.0 0.00 0.00 0.00 88 1003.1
20260506101524 75 155 0.0 0.0 0.00 0.00 0.00 88 1003.0
20260506101042 75 154 0.0 0.0 0.00 0.00 0.00 88 1003.0
20260506100532 75 155 0.0 0.0 0.00 0.00 0.00 88 1003.0
20260506100035 75 217 0.0 0.0 0.00 0.00 0.00 88 1003.0
20260506095543 75 217 0.0 0.0 0.00 0.00 0.00 88 1003.0
20260506095046 75 240 0.0 0.0 0.00 0.00 0.00 88 1003.0
20260506094529 75 173 0.0 0.0 0.00 0.00 0.00 88 1003.0
20260506094035 76 149 0.0 0.0 0.00 0.00 0.00 88 1003.0
20260506093537 75 150 0.0 0.0 0.00 0.00 0.00 88 1003.0
20260506093033 76 150 0.0 0.0 0.00 0.00 0.00 88 1002.7
20260506092534 76 149 0.0 0.0 0.00 0.00 0.00 88 1002.7
20260506092030 76 149 0.0 0.0 0.00 0.00 0.00 88 1002.7
20260506091535 76 149 0.9 0.0 0.00 0.00 0.00 87 1002.9
20260506091049 76 148 0.9 0.0 0.00 0.00 0.00 87 1002.9
20260506090540 76 148 0.0 0.0 0.00 0.00 0.00 87 1002.9
20260506090043 76 191 0.0 0.0 0.00 0.00 0.00 87 1002.8
20260506085544 76 191 0.0 0.0 0.00 0.00 0.00 87 1002.8
20260506085047 76 195 0.9 0.0 0.00 0.00 0.00 87 1002.8
20260506084529 76 140 0.9 0.0 0.00 0.00 0.00 87 1002.6
20260506084040 76 137 0.9 0.0 0.00 0.00 0.00 87 1002.6
20260506083603 76 171 0.0 0.0 0.00 0.00 0.00 87 1002.6
20260506083038 76 185 0.0 0.0 0.00 0.00 0.00 87 1002.7
20260506082539 76 184 0.0 0.0 0.00 0.00 0.00 87 1002.7
20260506082103 76 186 0.9 0.0 0.00 0.00 0.00 87 1002.7
20260506081548 76 176 0.9 0.0 0.00 0.00 0.00 87 1003.0
20260506081044 76 179 0.0 0.0 0.00 0.00 0.00 87 1003.0
20260506080539 76 179 0.0 0.0 0.00 0.00 0.00 87 1003.0
20260506073043 76 171 0.9 0.0 0.00 0.00 0.00 86 1003.1
20260506072535 76 146 1.7 0.0 0.00 0.00 0.00 87 1003.1
20260506072021 76 139 1.7 0.0 0.00 0.00 0.00 86 1003.1
20260506071530 76 145 0.9 0.0 0.00 0.00 0.00 87 1003.4
20260506071037 76 82 0.9 0.0 0.00 0.00 0.00 87 1003.4
20260506070531 76 165 0.9 0.0 0.00 0.00 0.00 87 1003.4
20260506062023 76 167 0.9 0.0 0.00 0.00 0.00 86 1003.6
20260506061531 76 141 0.0 0.0 0.00 0.00 0.00 86 1003.6
20260506061052 76 141 0.9 0.0 0.00 0.00 0.00 86 1003.6
20260506060545 76 143 0.9 0.0 0.00 0.00 0.00 86 1003.6
20260506051102 77 148 1.7 0.0 0.00 0.00 0.00 85 1003.6
20260506050531 77 154 0.9 0.0 0.00 0.00 0.00 85 1003.6
20260506045028 77 167 0.9 0.0 0.00 0.00 0.00 85 1003.6
20260506044537 77 157 0.9 0.0 0.00 0.00 0.00 85 1003.6
20260506044043 77 163 1.7 0.0 0.00 0.00 0.00 84 1003.6
20260506043526 77 150 2.6 0.0 0.00 0.00 0.00 84 1003.6
20260506043052 77 113 1.7 0.0 0.00 0.00 0.00 84 1003.6
20260506042532 77 165 1.7 0.0 0.00 0.00 0.00 85 1003.6
20260506042031 77 120 0.9 0.0 0.00 0.00 0.00 84 1003.6
20260506041533 77 131 0.0 0.0 0.00 0.00 0.00 85 1003.4
20260506041046 78 131 0.9 0.0 0.00 0.00 0.00 85 1003.4
20260506040549 78 151 0.9 0.0 0.00 0.00 0.00 84 1003.4
20260506040033 78 152 0.9 0.0 0.00 0.00 0.00 84 1003.2
20260506035535 78 150 0.9 0.0 0.00 0.00 0.00 84 1003.2
20260506035038 78 149 0.9 0.0 0.00 0.00 0.00 84 1003.2
20260506034544 78 146 0.9 0.0 0.00 0.00 0.00 84 1003.0
20260506034027 78 134 0.0 0.0 0.00 0.00 0.00 84 1003.0
20260506033548 78 134 0.9 0.0 0.00 0.00 0.00 84 1003.0
20260506033030 78 134 0.9 0.0 0.00 0.00 0.00 84 1002.9
20260506032531 78 134 0.9 0.0 0.00 0.00 0.00 84 1002.9
20260506032046 78 134 1.7 0.0 0.00 0.00 0.00 84 1002.9
20260506031528 78 124 1.7 0.0 0.00 0.00 0.00 84 1002.5
20260506031040 78 125 0.9 0.0 0.00 0.00 0.00 84 1002.5
20260506030551 78 158 0.9 0.0 0.00 0.00 0.00 84 1002.5